TimeMST,TemperatureF,Dew PointF,Humidity,Sea Level PressureIn,VisibilityMPH,Wind Direction,Wind SpeedMPH,Gust SpeedMPH,PrecipitationIn,Events,Conditions,WindDirDegrees,DateUTC
12:56 AM,15.1,7.2,71,29.98,10.0,Calm,Calm,-,N/A,,Clear,0,2013-03-06 07:56:00
1:56 AM,15.1,6.1,68,30.00,10.0,NNW,4.6,-,N/A,,Clear,340,2013-03-06 08:56:00
2:56 AM,17.1,9.1,71,29.96,10.0,NE,4.6,-,N/A,,Clear,40,2013-03-06 09:56:00
3:56 AM,19.0,10.0,68,29.91,10.0,East,4.6,-,N/A,,Mostly Cloudy,100,2013-03-06 10:56:00
4:56 AM,28.0,14.0,56,29.88,10.0,Calm,Calm,-,N/A,,Overcast,0,2013-03-06 11:56:00
5:56 AM,34.0,17.1,50,29.83,10.0,South,15.0,-,N/A,,Overcast,170,2013-03-06 12:56:00
7:56 AM,38.8,21.0,49,29.81,10.0,South,10.4,-,N/A,,Mostly Cloudy,180,2013-03-06 14:56:00
8:56 AM,39.9,22.1,49,29.80,10.0,SSE,13.8,-,N/A,,Mostly Cloudy,160,2013-03-06 15:56:00
9:56 AM,41.9,24.1,49,29.76,10.0,South,19.6,-,N/A,,Scattered Clouds,180,2013-03-06 16:56:00
10:56 AM,39.9,25.2,56,29.78,10.0,South,17.3,-,N/A,,Overcast,190,2013-03-06 17:56:00
11:56 AM,41.0,26.1,55,29.77,10.0,SSW,20.7,26.5,N/A,,Mostly Cloudy,210,2013-03-06 18:56:00
12:34 PM,35.6,30.2,81,29.81,6.0,SW,18.4,-,0.00,Snow,Light Snow,230,2013-03-06 19:34:00
12:56 PM,36.9,30.0,76,29.83,10.0,WSW,6.9,-,0.00,,Overcast,240,2013-03-06 19:56:00
1:26 PM,37.4,28.4,70,29.80,10.0,South,19.6,24.2,0.00,Rain,Light Rain,180,2013-03-06 20:26:00
1:36 PM,37.4,28.4,70,29.80,10.0,West,13.8,-,0.00,Rain,Light Rain,260,2013-03-06 20:36:00
1:47 PM,37.4,28.4,70,29.80,10.0,South,5.8,-,0.00,Rain,Light Rain,190,2013-03-06 20:47:00
1:56 PM,36.9,30.0,76,29.82,10.0,SSW,6.9,-,0.00,Rain,Light Rain,210,2013-03-06 20:56:00
2:16 PM,35.6,30.2,81,29.79,10.0,NW,5.8,-,0.00,,Overcast,320,2013-03-06 21:16:00
2:41 PM,35.6,32.0,87,29.79,8.0,NNW,8.1,-,0.00,Rain,Light Rain,340,2013-03-06 21:41:00
2:56 PM,34.9,32.0,89,29.82,7.0,Calm,Calm,-,0.00,Rain,Light Rain,0,2013-03-06 21:56:00
3:02 PM,35.6,32.0,87,29.79,2.5,ENE,3.5,-,0.00,Rain,Light Rain,60,2013-03-06 22:02:00
3:06 PM,35.6,32.0,87,29.79,1.2,ENE,5.8,-,0.00,Rain,Light Rain,70,2013-03-06 22:06:00
3:08 PM,35.6,32.0,87,29.79,1.0,East,6.9,-,0.00,Rain,Light Rain,90,2013-03-06 22:08:00
3:11 PM,35.6,32.0,87,29.78,0.8,East,10.4,-,0.00,Rain,Light Rain,90,2013-03-06 22:11:00
3:13 PM,35.6,32.0,87,29.78,0.8,East,10.4,-,0.00,Snow,Light Snow,90,2013-03-06 22:13:00
3:18 PM,35.6,32.0,87,29.78,1.2,East,10.4,-,0.00,Snow,Light Snow,100,2013-03-06 22:18:00
3:21 PM,35.6,32.0,87,29.78,2.0,East,10.4,-,0.00,Snow,Light Snow,100,2013-03-06 22:21:00
3:26 PM,35.6,32.0,87,29.78,8.0,ESE,8.1,-,0.00,Snow,Light Snow,110,2013-03-06 22:26:00
3:33 PM,35.6,32.0,87,29.77,10.0,East,8.1,-,0.00,,Scattered Clouds,90,2013-03-06 22:33:00
3:56 PM,36.9,31.1,80,29.75,10.0,ENE,5.8,-,0.00,,Clear,60,2013-03-06 22:56:00
4:56 PM,38.8,27.1,63,29.70,10.0,South,15.0,-,N/A,,Scattered Clouds,190,2013-03-06 23:56:00
5:23 PM,35.6,30.2,81,29.78,10.0,NW,19.6,-,N/A,,Mostly Cloudy,320,2013-03-07 00:23:00
5:35 PM,33.8,30.2,87,29.80,2.5,West,25.3,28.8,0.00,Snow,Light Snow,280,2013-03-07 00:35:00
5:38 PM,33.8,30.2,87,29.80,1.0,West,26.5,-,0.00,Snow,Light Snow,270,2013-03-07 00:38:00
5:40 PM,33.8,30.2,87,29.81,0.5,West,23.0,28.8,0.00,Fog-Snow,Light Snow,270,2013-03-07 00:40:00
5:45 PM,32.0,30.2,93,29.81,0.2,West,17.3,-,0.00,Fog-Snow,Light Snow,270,2013-03-07 00:45:00
5:56 PM,32.0,31.1,96,29.78,0.5,West,11.5,-,0.00,Fog-Snow,Snow,270,2013-03-07 00:56:00
6:10 PM,32.0,30.2,93,29.83,0.2,West,5.8,-,0.00,Fog-Snow,Snow,280,2013-03-07 01:10:00
6:17 PM,32.0,30.2,93,29.83,0.5,Calm,Calm,-,0.00,Fog-Snow,Snow,0,2013-03-07 01:17:00
6:44 PM,30.2,30.2,100,29.84,0.8,West,4.6,-,0.00,Snow,Light Snow,280,2013-03-07 01:44:00
6:47 PM,30.2,30.2,100,29.85,1.2,Variable,3.5,-,0.00,Snow,Light Snow,0,2013-03-07 01:47:00
6:56 PM,31.1,30.0,96,29.82,4.0,Variable,4.6,-,0.00,Snow,Light Snow,0,2013-03-07 01:56:00
7:00 PM,30.2,30.2,100,29.85,7.0,NNE,4.6,-,0.00,Snow,Light Snow,20,2013-03-07 02:00:00
7:09 PM,30.2,30.2,100,29.86,2.0,NW,4.6,-,0.00,Snow,Light Snow,320,2013-03-07 02:09:00
7:21 PM,30.2,28.4,93,29.86,0.8,North,5.8,-,0.00,Snow,Light Snow,350,2013-03-07 02:21:00
7:26 PM,30.2,28.4,93,29.87,0.5,NNW,3.5,-,0.00,Fog-Snow,Snow,340,2013-03-07 02:26:00
7:56 PM,31.1,30.0,96,29.83,0.8,East,4.6,-,0.00,Snow,Light Snow,100,2013-03-07 02:56:00
8:04 PM,30.2,30.2,100,29.87,1.0,East,5.8,-,0.00,Snow,Light Snow,100,2013-03-07 03:04:00
8:21 PM,30.2,30.2,100,29.89,1.5,SSE,8.1,-,0.00,Snow,Light Snow,150,2013-03-07 03:21:00
8:30 PM,30.2,30.2,100,29.90,2.0,SSE,8.1,-,0.00,Snow,Light Snow,160,2013-03-07 03:30:00
8:38 PM,30.2,30.2,100,29.91,1.5,SSE,5.8,-,0.00,Snow,Light Snow,150,2013-03-07 03:38:00
8:56 PM,30.0,29.1,96,29.87,1.5,SSE,10.4,-,0.00,Snow,Light Snow,160,2013-03-07 03:56:00
9:06 PM,30.2,28.4,93,29.92,3.0,SSE,6.9,-,0.00,Snow,Light Snow,160,2013-03-07 04:06:00
9:15 PM,30.2,28.4,93,29.92,9.0,SSE,5.8,-,0.00,Snow,Light Snow,150,2013-03-07 04:15:00
9:36 PM,30.2,28.4,93,29.94,2.5,South,9.2,-,0.00,Snow,Light Snow,190,2013-03-07 04:36:00
9:39 PM,30.2,28.4,93,29.94,1.2,South,9.2,-,0.00,Snow,Light Snow,190,2013-03-07 04:39:00
9:41 PM,28.4,28.4,100,29.95,0.8,South,10.4,-,0.00,Snow,Light Snow,180,2013-03-07 04:41:00
9:45 PM,28.4,28.4,100,29.95,0.5,South,8.1,-,0.00,Fog-Snow,Light Snow,170,2013-03-07 04:45:00
9:56 PM,29.1,28.0,96,29.88,2.0,SE,8.1,-,0.00,Snow,Light Snow,140,2013-03-07 04:56:00
10:25 PM,28.4,26.6,93,29.92,4.0,SE,10.4,-,0.00,Snow,Light Snow,140,2013-03-07 05:25:00
10:56 PM,28.0,22.1,78,29.88,10.0,SSE,9.2,-,0.00,,Scattered Clouds,150,2013-03-07 05:56:00
11:56 PM,28.0,22.1,78,29.89,10.0,SSE,12.7,-,N/A,,Mostly Cloudy,160,2013-03-07 06:56:00